Flag for Germany Weather past 2 weeks in Schwedt/Oder, Brandenburg, Germany

Now
46 °F

Sunny.


Feels Like: 44 °F
Forecast: 35 / 57 °F
Wind: 6 mph from Northwest

Location: Szczecin Airport

Current Time: Apr 18, 2015 at 7:59:24 PM

Latest Report: Apr 18, 2015 at 7:30 PM


Visibility: 10 mi

Pressure: 30.18 "Hg

Humidity: 46%

Dew point: 27 °F

Location of Schwedt/OderLocation

Historic Weather in Schwedt/Oder — Graph

°F

Schwedt/Oder temperature yesterday

Maximum temperature yesterday: 52 °F (at 2:30 PM)
Minimum temperature yesterday: 36 °F (at 5:00 AM)
Average temperature yesterday: 43 °F

Past Weeks' High & Low Weather Summary

 TemperatureHumidityPressure
High70 °F (Apr 11, 1:30 PM)100% (Apr 4, 2:30 AM)30.54 "Hg (Apr 4, 2:30 AM)
Low27 °F (Apr 4, 4:00 AM)26% (Apr 15, 6:30 PM)29.74 "Hg (Apr 15, 6:00 PM)
Average45 °F69%30.15 "Hg
* Reported Apr 3 7:00 PM — Apr 18 7:00 PM, Schwedt/Oder, Weather by CustomWeather, © 2015

Note: Actual official high and low records may vary slightly from our data, if they occured in-between our weather recording intervals... More about our weather records

Advertising

Schwedt/Oder weather history for previous 24 hours

 ConditionsComfort  
Time TempWeatherWind HumidityBarometerVisibility
7:00 PM
Sat, Apr 18
46 °FSunny.8 mph46%30.18 "Hg10 mi
6:30 PM46 °FSunny.9 mph46%30.18 "Hg10 mi
6:00 PM48 °FPassing clouds.9 mph43%30.21 "HgN/A
5:30 PM48 °FPassing clouds.10 mph43%30.21 "HgN/A
5:00 PM48 °FScattered clouds.14 mph43%30.21 "HgN/A
4:30 PM48 °FScattered clouds.10 mph46%30.21 "HgN/A
4:00 PM48 °FScattered clouds.12 mph46%30.21 "HgN/A
3:30 PM46 °FScattered clouds.10 mph46%30.21 "HgN/A
3:00 PM48 °FScattered clouds.12 mph43%30.21 "HgN/A
2:30 PM48 °FScattered clouds.10 mph46%30.21 "HgN/A
2:00 PM48 °FScattered clouds.9 mph46%30.24 "HgN/A
1:30 PM46 °FScattered clouds.8 mph50%30.24 "HgN/A
1:00 PM46 °FScattered clouds.7 mph50%30.24 "HgN/A
12:30 PM46 °FScattered clouds.8 mph53%30.24 "HgN/A
12:00 PM45 °FPartly sunny.10 mph57%30.24 "HgN/A
11:30 AM45 °FScattered clouds.9 mph61%30.24 "HgN/A
11:00 AM45 °FScattered clouds.6 mph71%30.24 "HgN/A
10:30 AM41 °FPartly sunny.5 mph81%30.24 "HgN/A
10:00 AM41 °FSprinkles. Scattered clouds.9 mph81%30.21 "HgN/A
9:30 AM43 °FPassing clouds.6 mph81%30.21 "HgN/A
9:00 AM41 °FScattered clouds.6 mph81%30.21 "HgN/A
8:30 AM39 °FScattered clouds.3 mph87%30.21 "HgN/A
8:00 AM37 °FScattered clouds.2 mph93%30.21 "HgN/A
7:30 AM37 °FScattered clouds.3 mph93%30.21 "HgN/A
7:00 AM36 °FBroken clouds.3 mph93%30.18 "HgN/A
6:30 AM34 °FPartly cloudy.3 mph93%30.18 "HgN/A
6:00 AM32 °FFog.2 mph100%30.18 "HgN/A
5:30 AM32 °FClear.2 mph93%30.18 "Hg10 mi
5:00 AM32 °FClear.2 mph93%30.18 "Hg10 mi
4:30 AM32 °FClear.3 mph93%30.18 "Hg10 mi
4:00 AM32 °FClear.2 mph93%30.15 "Hg10 mi
3:30 AM34 °FClear.5 mph93%30.15 "Hg10 mi
3:00 AM34 °FPartly cloudy.3 mph100%30.15 "HgN/A
2:30 AM32 °FClear.3 mph93%30.15 "Hg10 mi
2:00 AM34 °FClear.3 mph93%30.15 "Hg10 mi
1:30 AM34 °FClear.3 mph93%30.15 "Hg10 mi
1:00 AM34 °FClear.3 mph93%30.12 "Hg10 mi
12:30 AM36 °FClear.2 mph87%30.12 "Hg10 mi
12:00 AM37 °FClear.3 mph81%30.12 "Hg10 mi
11:00 PM
Fri, Apr 17
37 °FClear.3 mph81%30.09 "Hg10 mi
10:30 PM39 °FClear.3 mph81%30.07 "Hg10 mi
10:00 PM39 °FClear.3 mph75%30.07 "Hg10 mi
9:30 PM41 °FClear.7 mph76%30.04 "Hg10 mi
9:00 PM43 °FSunny.6 mph71%30.04 "Hg10 mi
8:30 PM43 °FSunny.6 mph66%30.01 "Hg10 mi
8:00 PM45 °FSunny.3 mph66%30.01 "Hg10 mi
7:30 PM45 °FPassing clouds.7 mph66%29.98 "HgN/A
7:00 PM46 °FScattered clouds.7 mph66%29.98 "HgN/A
Weather by CustomWeather, © 2015

See weather overviewHow to use our weather pages